Regional Weather Roundup
Issued by NWS

Home | Current Version | Previous Version | Text Only | Print | Product List | Glossary Off
Versions: 1 2 3 4 5 6 7 8 9 10 11 12 13 14 15 16 17 18 19 20 21 22 23 24 25 26 27 28 29 30 31 32 33 34 35 36 37 38 39 40 41 42 43 44 45 46 47 48 49 50

000
ASUS43 KLSX 270907
RWRMO

WEATHER SUMMARY FOR MISSOURI
NATIONAL WEATHER SERVICE SPRINGFIELD MO
400 AM CDT FRI MAY 27 2016

NOTE: "FAIR" INDICATES FEW OR NO CLOUDS BELOW 12,000 FEET WITH NO
       SIGNIFICANT WEATHER AND/OR OBSTRUCTIONS TO VISIBILITY.
       CURRENT SKY AND/OR WEATHER CONDITIONS ARE NOT AVAILABLE FOR
       CHILLICOTHE AND FARMINGTON.

MOZ001>031-035>038-043-044-053-054-271000-
...NORTHERN AND WESTERN MISSOURI...

CITY           SKY/WX    TMP DP  RH WIND       PRES   REMARKS
KANSAS CTY INT LGT RAIN  62  60  93 NW10      29.77F
KANSAS C DTWN  LGT RAIN  63  61  93 W10G20    29.77R
LEE`S SUMMIT   RAIN      62  61  96 W13G20    29.78R FOG
ST JOSEPH      RAIN      62  61  96 N13       29.78F FOG
CHILLICOTHE      N/A     63  62  97 E5        29.77F
KIRKSVILLE     CLOUDY    61  60  97 SE7       29.82F

$$
MOZ066>068-077>081-088>096-101>105-271000-
...SOUTHWEST MISSOURI...

CITY           SKY/WX    TMP DP  RH WIND       PRES   REMARKS
SPRINGFIELD    CLOUDY    69  66  90 SE14      29.81R
JOPLIN         HVY RAIN  62  59  90 NW15G36   29.82R FOG

$$
MOZ032>034-039>042-045>050-055>058-069>072-271000-
...CENTRAL MISSOURI...

CITY           SKY/WX    TMP DP  RH WIND       PRES   REMARKS
COLUMBIA       CLOUDY    66  65  96 SE13      29.80F
JEFFERSON CITY MOCLDY    68  66  93 SE15      29.80F
ROLLA          CLOUDY    66  64  93 SE15      29.84F
SEDALIA        CLOUDY    67  66  97 MISG      29.77F
WHITEMAN AFB   CLOUDY    64  64 100 SE6       29.75F
WARRENSBURG    CLOUDY    63  61  94 E7        29.74F

$$
MOZ051-052-059>065-271000-
...EAST CENTRAL MISSOURI...

CITY           SKY/WX    TMP DP  RH WIND       PRES   REMARKS
ST LOUIS INTL  LGT RAIN  69  65  86 SW6       29.89S
SPIRIT OF STL  LGT RAIN  67  66  97 CALM      29.87F
ST CHARLES     CLOUDY    69  67  93 W3        29.87F

$$
MOZ072>076-082>087-097>100-106>115-271000-
...SOUTH CENTRAL AND SOUTHEAST MISSOURI...

CITY           SKY/WX    TMP DP  RH WIND       PRES   REMARKS
CAPE GIRARDEAU LGT RAIN  66  65  96 W7        29.91S
FARMINGTON     RAIN      66  64  93 S13       29.93S
POPLAR BLUFF   RAIN      67  66  97 N3        29.90F FOG
WEST PLAINS    CLOUDY    67  64  90 SE7       29.87F

$$


USA.gov is the U.S. government's official web portal to all federal, state and local government web resources and services.